Overview Statistics Trail Chart Weather Telemetry Raw packets
 

This is the latest recevied weather packets stored in our database for station/object KB4MOX. If no packets are shown the sender has not sent any weather packets the latest 10 day(s).

<< 22 23 24 25 26 27 28 >>
Time Temp. Humidity Pressure Rain* Wind** Luminosity Snow
1788466083 35.56° C 45% 1016 hPa 0 mm - 587 W/m² -
1788465779 35.56° C 45% 1015.7 hPa 0 mm - 594 W/m² -
1788465474 35.56° C 47% 1016 hPa 0 mm - 581 W/m² -
1788465171 35° C 46% 1016.2 hPa 0 mm - 632 W/m² -
1788464871 35.56° C 46% 1016.2 hPa 0 mm - 148 W/m² -
1788464562 35.56° C 46% 1016.2 hPa 0 mm - 183 W/m² -
1788464257 35.56° C 46% 1016.3 hPa 0 mm - 205 W/m² -
1788463952 36.11° C 46% 1016.2 hPa 0 mm - 183 W/m² -
1788463648 36.67° C 44% 1016.1 hPa 0 mm - 159 W/m² -
1788463343 36.11° C 45% 1016.3 hPa 0 mm - 723 W/m² -
1788463039 35° C 47% 1016.4 hPa 0 mm - 732 W/m² -
1788462735 36.11° C 46% 1016.5 hPa 0 mm - 135 W/m² -
1788462428 35.56° C 46% 1016.4 hPa 0 mm - 511 W/m² -
1788462123 35° C 46% 1016.3 hPa 0 mm - 787 W/m² -
1788461818 35° C 48% 1016.4 hPa 0 mm - 290 W/m² -
1788461513 35° C 48% 1016.6 hPa 0 mm - 555 W/m² -
1788461210 34.44° C 49% 1016.6 hPa 0 mm - 744 W/m² -
1788460920 35° C 48% 1016.7 hPa 0 mm - 130 W/m² -
1788460604 36.11° C 46% 1016.7 hPa 0 mm - 184 W/m² -
1788460299 36.11° C 45% 1016.8 hPa 0 mm - 778 W/m² -
1788459998 35° C 47% 1016.8 hPa 0 mm - 793 W/m² -
1788459694 34.44° C 49% 1016.9 hPa 0 mm - 161 W/m² -
1788459392 35.56° C 48% 1017 hPa 0 mm - 167 W/m² -
1788459087 35.56° C 48% 1017 hPa 0 mm - 221 W/m² -
1788458782 36.11° C 46% 1017.1 hPa 0 mm - 774 W/m² -

* Rain latest hour (hover to see other rain measurements)
** Current wind speed in m/s (hover to see current wind gust speed)